{"data":{"norad_id":53409,"epoch":"2026-05-25T05:08:24.332928Z","epoch_age_seconds":55775,"freshness":"FRESH","line1":"1 53409U 22097X   26145.21417052 -.00000537  00000+0 -15645-4 0  9992","line2":"2 53409  53.2140 120.7850 0001479  84.8189 275.2972 15.08835683210341","mean_motion":15.08835683,"eccentricity":0.0001479,"inclination_deg":53.214,"raan_deg":120.785,"arg_perigee_deg":84.8189,"mean_anomaly_deg":275.2972,"bstar":-1.5645e-5,"rev_number":21034,"period_min":95.437827738595,"perigee_km":538.7334278764,"apogee_km":540.77974079865,"semimajor_km":6917.8935843375,"source":"CELESTRAK","updated_at":"2026-05-25T13:38:17.400081Z"}}